カタログに戻る

STARLINK-30905

運用中通信VLEO
NORAD 58356·PAYLOAD·🇺🇸 United States

打ち上げ Nov 18, 2023 から Cape Canaveral Space Force Station

Loading…

次のパス (今後24時間)

TLE

最新Source: CelesTrak SupGP

元期: Sep 14, 2026, 22:15 UTC

1 58356C 23177F   26257.92756944 -.00020499  00000+0 -74191-3 0  2572
2 58356  43.0041   1.7055 0002054 266.3405 348.0723 15.27611937    16

AllMySatでSTARLINK-30905をリアルタイム追跡

Download on the App Store